Maersk Drummond — A8JF3 — position and weather

sailwx.info

Track history (hours):
 
Tides and Currents Weather Stations Pressure Air Temp Water Temp Dewpoint Dewpoint Depression Visibility Wind Speed Wind Dir Waves Ship Positions

Maersk Drummond

Last reported at 2014-Jul-22 21:06 UTC. Time now 2014-Jul-23 13:32 UTC.
Position N 26°37' W 079°24'.

Length 294 m; draft 9.4 m.

Type: Ship (hazmat cat A). MMSI: 636091082.

Date/timePositionNaut miles runAvg speedWind from/ knotsBaromVisibWave heightAir tempDewpointWater temp
2014-Jul-22 21:06N 26°37' W 079°24'1016.0
2014-Jul-22 20:28N 26°27' W 079°27'1313.9
2014-Jul-22 19:33N 26°19' W 079°38'1615.7
2014-Jul-22 18:33N 26°11' W 079°53'1313.2
2014-Jul-22 17:34N 26°06' W 080°07'1 1.3
2014-Jul-22 16:29N 26°04' W 080°07'0 0.0
2014-Jul-22 15:29N 26°04' W 080°07'0 0.0
2014-Jul-22 14:32N 26°04' W 080°07'0 0.0
2014-Jul-22 13:32N 26°04' W 080°07'0 0.0
2014-Jul-22 12:32N 26°04' W 080°07'0 0.0
2014-Jul-22 11:32N 26°04' W 080°07'1 1.4
2014-Jul-22 10:34N 26°06' W 080°07'5 4.6
2014-Jul-22 09:34N 26°03' W 080°03'1110.8
2014-Jul-22 08:33N 25°53' W 079°60'1414.2
2014-Jul-22 07:33N 25°39' W 079°57'  
2014-Jul-19 08:15N 29°47' W 090°01'254 8.5
2014-Jul-18 02:32N 29°30' W 094°52'1211.9
2014-Jul-18 01:33N 29°41' W 094°59'1 1.2
2014-Jul-18 00:31N 29°41' W 095°00'0 0.0
2014-Jul-17 23:31N 29°41' W 095°00'0 0.0
2014-Jul-17 22:31N 29°41' W 095°00'0 0.0
2014-Jul-17 21:31N 29°41' W 095°00'0 0.0
2014-Jul-17 20:31N 29°41' W 095°00'0 0.0
2014-Jul-17 19:31N 29°41' W 095°00'0 0.0
2014-Jul-17 18:31N 29°41' W 095°00'0 0.0
2014-Jul-17 17:28N 29°41' W 095°00'0 0.0
2014-Jul-17 16:31N 29°41' W 095°00'0 0.0
2014-Jul-17 15:31N 29°41' W 095°00'0 0.0
2014-Jul-17 14:31N 29°41' W 095°00'0 0.0
2014-Jul-17 13:31N 29°41' W 095°00'0 0.0
2014-Jul-17 12:31N 29°41' W 095°00'0 0.0
2014-Jul-17 11:28N 29°41' W 095°00'0 0.0
2014-Jul-17 10:31N 29°41' W 095°00'0 0.0
2014-Jul-17 09:28N 29°41' W 095°00'0 0.0
2014-Jul-17 08:28N 29°41' W 095°00'0 0.0
2014-Jul-17 07:31N 29°41' W 095°00'0 0.0
2014-Jul-17 06:31N 29°41' W 095°00'0 0.0
2014-Jul-17 05:31N 29°41' W 095°00'0 0.0
2014-Jul-17 04:28N 29°41' W 095°00'0 0.0
2014-Jul-17 03:31N 29°41' W 095°00'0 0.0
2014-Jul-17 02:28N 29°41' W 095°00'0 0.1
2014-Jul-17 01:33N 29°41' W 095°00'7 7.1
2014-Jul-17 00:33N 29°35' W 094°56'1212.4
2014-Jul-16 23:33N 29°24' W 094°49'  
2014-Jul-13 17:08N 19°44' W 096°11'915.3
2014-Jul-13 16:33N 19°36' W 096°07'1515.4
2014-Jul-13 15:33N 19°22' W 095°59'1211.8
2014-Jul-13 14:34N 19°12' W 096°04'4 3.7
2014-Jul-13 13:31N 19°13' W 096°08'0 0.0
2014-Jul-13 12:28N 19°13' W 096°08'0 0.0
2014-Jul-13 11:31N 19°13' W 096°08'0 0.0
2014-Jul-13 10:31N 19°13' W 096°08'0 0.0
2014-Jul-13 09:31N 19°13' W 096°08'0 0.0
2014-Jul-13 08:31N 19°13' W 096°08'0 0.0
2014-Jul-13 07:31N 19°13' W 096°08'0 0.0
2014-Jul-13 06:31N 19°13' W 096°08'0 0.0
2014-Jul-13 05:31N 19°13' W 096°08'0 0.0
2014-Jul-13 04:25N 19°13' W 096°08'0 0.4
2014-Jul-13 03:34N 19°12' W 096°08'6 5.6
2014-Jul-13 02:34N 19°12' W 096°02'8 8.3
2014-Jul-13 01:34N 19°15' W 095°54'1 1.0
2014-Jul-13 00:34N 19°15' W 095°53'8 8.0
2014-Jul-12 23:33N 19°15' W 095°44'2512.6
2014-Jul-12 21:32N 19°28' W 095°21'  
Track history (hours):
 
Tides and Currents Weather Stations Pressure Air Temp Water Temp Dewpoint Dewpoint Depression Visibility Wind Speed Wind Dir Waves Ship Positions

Maersk Drummond

Last reported at 2014-Jul-22 21:06 UTC. Time now 2014-Jul-23 13:32 UTC.
Position N 26°37' W 079°24'.

Length 294 m; draft 9.4 m.

Type: Ship (hazmat cat A). MMSI: 636091082.

Date/timePositionNaut miles runAvg speedWind from/ knotsBaromVisibWave heightAir tempDewpointWater temp
2014-Jul-22 21:06N 26°37' W 079°24'1016.0
2014-Jul-22 20:28N 26°27' W 079°27'1313.9
2014-Jul-22 19:33N 26°19' W 079°38'1615.7
2014-Jul-22 18:33N 26°11' W 079°53'1313.2
2014-Jul-22 17:34N 26°06' W 080°07'1 1.3
2014-Jul-22 16:29N 26°04' W 080°07'0 0.0
2014-Jul-22 15:29N 26°04' W 080°07'0 0.0
2014-Jul-22 14:32N 26°04' W 080°07'0 0.0
2014-Jul-22 13:32N 26°04' W 080°07'0 0.0
2014-Jul-22 12:32N 26°04' W 080°07'0 0.0
2014-Jul-22 11:32N 26°04' W 080°07'1 1.4
2014-Jul-22 10:34N 26°06' W 080°07'5 4.6
2014-Jul-22 09:34N 26°03' W 080°03'1110.8
2014-Jul-22 08:33N 25°53' W 079°60'1414.2
2014-Jul-22 07:33N 25°39' W 079°57'  
2014-Jul-19 08:15N 29°47' W 090°01'254 8.5
2014-Jul-18 02:32N 29°30' W 094°52'1211.9
2014-Jul-18 01:33N 29°41' W 094°59'1 1.2
2014-Jul-18 00:31N 29°41' W 095°00'0 0.0
2014-Jul-17 23:31N 29°41' W 095°00'0 0.0
2014-Jul-17 22:31N 29°41' W 095°00'0 0.0
2014-Jul-17 21:31N 29°41' W 095°00'0 0.0
2014-Jul-17 20:31N 29°41' W 095°00'0 0.0
2014-Jul-17 19:31N 29°41' W 095°00'0 0.0
2014-Jul-17 18:31N 29°41' W 095°00'0 0.0
2014-Jul-17 17:28N 29°41' W 095°00'0 0.0
2014-Jul-17 16:31N 29°41' W 095°00'0 0.0
2014-Jul-17 15:31N 29°41' W 095°00'0 0.0
2014-Jul-17 14:31N 29°41' W 095°00'0 0.0
2014-Jul-17 13:31N 29°41' W 095°00'0 0.0
2014-Jul-17 12:31N 29°41' W 095°00'0 0.0
2014-Jul-17 11:28N 29°41' W 095°00'0 0.0
2014-Jul-17 10:31N 29°41' W 095°00'0 0.0
2014-Jul-17 09:28N 29°41' W 095°00'0 0.0
2014-Jul-17 08:28N 29°41' W 095°00'0 0.0
2014-Jul-17 07:31N 29°41' W 095°00'0 0.0
2014-Jul-17 06:31N 29°41' W 095°00'0 0.0
2014-Jul-17 05:31N 29°41' W 095°00'0 0.0
2014-Jul-17 04:28N 29°41' W 095°00'0 0.0
2014-Jul-17 03:31N 29°41' W 095°00'0 0.0
2014-Jul-17 02:28N 29°41' W 095°00'0 0.1
2014-Jul-17 01:33N 29°41' W 095°00'7 7.1
2014-Jul-17 00:33N 29°35' W 094°56'1212.4
2014-Jul-16 23:33N 29°24' W 094°49'  
2014-Jul-13 17:08N 19°44' W 096°11'915.3
2014-Jul-13 16:33N 19°36' W 096°07'1515.4
2014-Jul-13 15:33N 19°22' W 095°59'1211.8
2014-Jul-13 14:34N 19°12' W 096°04'4 3.7
2014-Jul-13 13:31N 19°13' W 096°08'0 0.0
2014-Jul-13 12:28N 19°13' W 096°08'0 0.0
2014-Jul-13 11:31N 19°13' W 096°08'0 0.0
2014-Jul-13 10:31N 19°13' W 096°08'0 0.0
2014-Jul-13 09:31N 19°13' W 096°08'0 0.0
2014-Jul-13 08:31N 19°13' W 096°08'0 0.0
2014-Jul-13 07:31N 19°13' W 096°08'0 0.0
2014-Jul-13 06:31N 19°13' W 096°08'0 0.0
2014-Jul-13 05:31N 19°13' W 096°08'0 0.0
2014-Jul-13 04:25N 19°13' W 096°08'0 0.4
2014-Jul-13 03:34N 19°12' W 096°08'6 5.6
2014-Jul-13 02:34N 19°12' W 096°02'8 8.3
2014-Jul-13 01:34N 19°15' W 095°54'1 1.0
2014-Jul-13 00:34N 19°15' W 095°53'8 8.0
2014-Jul-12 23:33N 19°15' W 095°44'2512.6
2014-Jul-12 21:32N 19°28' W 095°21'  

Dump ship's entire track history